KM5RF Weather Reports


Display with metric or nautical units.
time (UTC)temp
F
wind
direction
speed
MPH
gust
MPH
rain 1hr
in
rain 24hr
in
rain mn
in
humidity
%
barometer
mb
20260506153009 54 31 3.0 14.0 0.00 0.00 0.00 80 1014.4
20260506151512 54 332 5.0 12.0 0.00 0.00 0.00 79 1015.0
20260506150018 54 330 6.0 14.0 0.00 0.00 0.00 78 1015.6
20260506144529 54 336 8.0 16.0 0.00 0.00 0.00 77 1014.5
20260506143027 54 30 5.0 13.0 0.00 0.00 0.00 77 1014.3
20260506141530 55 347 8.0 14.0 0.00 0.00 0.00 77 1013.7
20260506140015 55 325 7.0 11.0 0.00 0.00 0.00 76 1013.5
20260506134521 55 334 7.0 15.0 0.00 0.00 0.00 76 1013.5
20260506133021 55 352 8.0 12.0 0.00 0.00 0.00 76 1013.0
20260506131532 55 352 7.0 17.0 0.00 0.00 0.00 76 1012.8
20260506130030 56 27 8.0 15.0 0.00 0.00 0.00 75 1012.9
20260506124515 56 355 8.0 14.0 0.00 0.00 0.00 76 1012.6
20260506123022 56 325 6.0 15.0 0.00 0.00 0.00 76 1012.3
20260506121527 56 360 7.0 14.0 0.00 0.00 0.00 76 1012.1
20260506120028 56 331 7.0 13.0 0.00 0.00 0.00 75 1012.2
20260506120018 56 17 7.0 13.0 0.00 0.00 0.00 75 1012.2
20260506114517 57 344 5.0 14.0 0.00 0.00 0.00 74 1011.8
20260506113022 57 350 6.0 15.0 0.00 0.00 0.00 75 1011.7
20260506111503 57 334 4.0 12.0 0.00 0.00 0.00 76 1011.2
20260506110007 57 5 5.0 11.0 0.00 0.00 0.00 78 1011.1
20260506104513 57 355 3.0 9.0 0.00 0.00 0.00 79 1010.9
20260506103025 57 322 6.0 13.0 0.00 0.00 0.00 79 1010.6
20260506101539 57 349 9.0 14.0 0.00 0.00 0.00 79 1010.5
20260506100026 58 346 6.0 14.0 0.00 0.00 0.00 79 1010.1
20260506094514 58 321 8.0 13.0 0.00 0.00 0.00 79 1010.1
20260506093017 60 344 5.0 12.0 0.00 0.00 0.00 78 1010.0
20260506091520 61 330 4.0 10.0 0.00 0.00 0.00 76 1009.8
20260506090026 62 339 4.0 9.0 0.00 0.00 0.00 75 1009.7
20260506084527 62 343 3.0 8.0 0.00 0.00 0.00 76 1009.4
20260506083010 62 355 2.0 8.0 0.00 0.00 0.00 76 1009.3
20260506081515 62 17 2.0 8.0 0.00 0.00 0.00 76 1009.1
20260506073038 63 343 3.0 9.0 0.00 0.00 0.00 76 1009.3
20260506071514 63 5 4.0 9.0 0.00 0.00 0.00 76 1009.4
20260506061528 65 360 5.0 9.0 0.00 0.00 0.00 76 1009.2
20260506044545 70 346 6.0 14.0 0.00 0.00 0.00 73 1008.9
20260506043024 70 334 8.0 14.0 0.00 0.00 0.00 73 1008.9
20260506041504 71 325 5.0 12.0 0.00 0.00 0.00 72 1008.7
20260506040010 71 24 7.0 14.0 0.00 0.00 0.00 72 1008.5
20260506034532 72 351 3.0 10.0 0.00 0.00 0.00 71 1008.1
20260506033020 72 323 5.0 12.0 0.00 0.00 0.00 71 1007.8
20260506031526 73 321 5.0 14.0 0.00 0.00 0.00 70 1008.0
20260506030008 75 325 6.0 10.0 0.00 0.00 0.00 70 1007.7
20260506024509 76 296 4.0 9.0 0.00 0.00 0.00 73 1007.2
20260506023016 77 256 0.0 2.0 0.00 0.00 0.00 77 1006.5
20260506021520 77 256 0.0 0.0 0.00 0.00 0.00 77 1005.9
20260506020024 78 256 0.0 3.0 0.00 0.00 0.00 77 1006.0
20260506014507 78 190 0.0 1.0 0.00 0.00 0.00 76 1005.7
20260506013014 79 179 1.0 7.0 0.00 0.00 0.00 75 1005.4
20260506011518 79 192 7.0 12.0 0.00 0.00 0.00 76 1005.1
20260506010024 79 184 5.0 13.0 0.00 0.00 0.00 75 1004.9
20260506004534 79 158 6.0 16.0 0.00 0.00 0.00 74 1005.0
20260506003010 80 182 5.0 16.0 0.00 0.00 0.00 75 1004.9
20260506001513 80 183 5.0 11.0 0.00 0.00 0.00 75 1004.8
20260506000022 81 157 5.0 12.0 0.00 0.00 0.00 74 1004.7
20260505234533 81 157 6.0 14.0 0.00 0.00 0.00 74 1004.9
20260505233027 81 175 5.0 13.0 0.00 0.00 0.00 74 1004.8
20260505231515 83 225 6.0 15.0 0.00 0.00 0.00 72 1004.5
20260505230013 83 181 9.0 15.0 0.00 0.00 0.00 71 1004.6
20260505224520 83 184 8.0 15.0 0.00 0.00 0.00 71 1004.3
20260505223004 84 182 9.0 17.0 0.00 0.00 0.00 71 1004.2
20260505221507 85 180 9.0 15.0 0.00 0.00 0.00 69 1004.0
20260505220022 85 205 6.0 15.0 0.00 0.00 0.00 69 1004.3
20260505214522 86 150 6.0 14.0 0.00 0.00 0.00 69 1004.1
20260505213021 86 202 7.0 14.0 0.00 0.00 0.00 68 1004.3
20260505211524 86 200 8.0 14.0 0.00 0.00 0.00 67 1004.5
20260505210008 86 196 7.0 17.0 0.00 0.00 0.00 68 1004.4
20260505204514 86 179 8.0 17.0 0.00 0.00 0.00 67 1004.9
20260505203021 86 184 7.0 14.0 0.00 0.00 0.00 69 1005.0
20260505201525 85 168 7.0 17.0 0.00 0.00 0.00 69 1005.1
20260505200027 85 193 9.0 17.0 0.00 0.00 0.00 67 1005.1
20260505194528 84 197 8.0 17.0 0.00 0.00 0.00 68 1005.3
20260505193033 83 195 10.0 18.0 0.00 0.00 0.00 69 1005.3
20260505191520 83 205 9.0 19.0 0.00 0.00 0.00 69 1005.4
20260505190007 83 212 8.0 18.0 0.00 0.00 0.00 69 1005.5
20260505184508 82 150 9.0 18.0 0.00 0.00 0.00 69 1005.7
20260505183014 82 175 10.0 18.0 0.00 0.00 0.00 70 1005.9
20260505181518 81 223 8.0 15.0 0.00 0.00 0.00 70 1006.0
20260505180037 80 211 8.0 15.0 0.00 0.00 0.00 70 1006.0
20260505174515 79 178 10.0 23.0 0.00 0.00 0.00 71 1005.9
20260505173012 80 200 12.0 22.0 0.00 0.00 0.00 70 1005.8
20260505171516 79 178 9.0 18.0 0.00 0.00 0.00 71 1005.9
20260505170026 78 209 14.0 24.0 0.00 0.00 0.00 71 1005.9
20260505164523 77 214 13.0 27.0 0.00 0.00 0.00 71 1005.7
20260505163008 77 213 9.0 25.0 0.00 0.00 0.00 71 1005.8
20260505161512 77 191 11.0 24.0 0.00 0.00 0.00 71 1006.0